McCook, NE

4:05 PM CST on December 06, 2016 (GMT -0600)
McCook Municipal

Weather History for KMCK - February, 2014

Change the Weather History Date:

Monday, February 17, 2014

  Actual Average Record
Temperature  
Mean Temperature 48 °F 31 °F  
Max Temperature 62 °F 45 °F 71 °F (1930)
Min Temperature 34 °F 18 °F -12 °F (1978)
Degree Days  
Heating Degree Days 18    
Moisture  
Dew Point 16 °F    
Average Humidity 24    
Maximum Humidity 33    
Minimum Humidity 15    
Precipitation  
Precipitation T in 0.02 in 0.15 in (1962)
Month to date precipitation 0.03 0.33  
Year to date precipitation 0.23 0.84  
Sea Level Pressure  
Sea Level Pressure 29.96 in    
Wind  
Wind Speed 19 mph (West)    
Max Wind Speed 30 mph    
Max Gust Speed 38 mph    
Visibility 10 miles    
Events      
T = Trace of Precipitation, MM = Missing Value Source: NWS Daily Summary

Daily Weather History Graph

Daily Weather History Graph

Search for Another Location

Airport or City:

Trip Planner

Search our weather history database for the weather conditions in past years. The results will help you decide how hot, cold, wet, or windy it might be!

Date:

Astronomy

Feb. 17, 2014 Rise Set
Actual Time 7:32 AM CST 6:20 PM CST
Civil Twilight 7:05 AM CST 6:48 PM CST
Nautical Twilight 6:33 AM CST 7:19 PM CST
Astronomical Twilight 6:01 AM CST 7:51 PM CST
Moon 9:17 PM CST (2/17) 8:34 AM CST (2/17)
Length of Visible Light 11h 43m
Length of Day
10h 47m
Waning Gibbous, 93% of the Moon is Illuminated
Feb 17
Waning Gibbous
Feb 22
Last Quarter
Mar 1
New
Mar 8
First Quarter
Mar 16
Full

Hourly Weather History & Observations

Time (CST) Temp. Windchill Dew Point Humidity Pressure Visibility Wind Dir Wind Speed Gust Speed Precip Events Conditions
12:53 AM 51.1 °F - - N/A% 29.81 in 10.0 mi WNW 27.6 mph 35.7 mph N/A   Mostly Cloudy
1:53 AM 48.0 °F - - N/A% 29.83 in 10.0 mi WNW 29.9 mph 38.0 mph N/A   Partly Cloudy
2:53 AM 42.1 °F 31.5 °F - N/A% 29.95 in 10.0 mi NNW 28.8 mph 35.7 mph 0.00 in   Mostly Cloudy
3:53 AM 37.9 °F 30.5 °F - N/A% 29.98 in 10.0 mi WNW 11.5 mph - N/A   Scattered Clouds
4:53 AM 37.0 °F 28.1 °F - N/A% 30.00 in 10.0 mi West 15.0 mph - N/A   Clear
5:53 AM 36.0 °F 25.3 °F - N/A% 30.03 in 10.0 mi WNW 19.6 mph 28.8 mph N/A   Clear
6:53 AM 35.1 °F 25.9 °F - N/A% 30.06 in 10.0 mi West 13.8 mph - N/A   Clear
7:53 AM 34.0 °F 26.6 °F - N/A% 30.08 in 10.0 mi West 9.2 mph - N/A   Clear
8:53 AM 37.9 °F 29.6 °F - N/A% 30.10 in 10.0 mi West 13.8 mph - N/A   Clear
9:53 AM 41.0 °F 33.5 °F - N/A% 30.09 in 10.0 mi West 13.8 mph - N/A   Clear
10:53 AM 46.9 °F - - N/A% 30.08 in 10.0 mi West 10.4 mph - N/A   Clear
11:53 AM 53.1 °F - - N/A% 30.07 in 10.0 mi NW 25.3 mph 32.2 mph N/A   Clear
12:53 PM 55.0 °F - - N/A% 30.01 in 10.0 mi NW 21.9 mph 26.5 mph N/A   Clear
1:53 PM 57.9 °F - 14.0 °F 18% 29.98 in 10.0 mi WNW 24.2 mph 33.4 mph N/A   Clear
2:53 PM 61.0 °F - 14.0 °F 16% 29.95 in 10.0 mi West 20.7 mph 26.5 mph N/A   Clear
3:53 PM 61.0 °F - 12.9 °F 15% 29.95 in 10.0 mi West 16.1 mph - N/A   Clear
4:53 PM 59.0 °F - 15.1 °F 18% 29.94 in 10.0 mi West 8.1 mph - N/A   Clear
5:53 PM 55.9 °F - 17.1 °F 22% 29.94 in 10.0 mi South 5.8 mph - N/A   Clear
6:53 PM 48.0 °F - 19.9 °F 33% 29.93 in 10.0 mi South 6.9 mph - N/A   Clear
7:53 PM 46.9 °F - 19.0 °F 33% 29.91 in 10.0 mi South 5.8 mph - N/A   Clear
8:53 PM 48.0 °F - 16.0 °F 28% 29.87 in 10.0 mi SSW 8.1 mph - N/A   Clear
9:53 PM 48.9 °F - 15.1 °F 26% 29.86 in 10.0 mi SSW 12.7 mph - N/A   Clear
10:53 PM 48.0 °F - 15.1 °F 27% 29.81 in 10.0 mi SSW 17.3 mph - N/A   Clear
11:53 PM 48.0 °F - 14.0 °F 26% 29.78 in 10.0 mi SW 11.5 mph - N/A   Clear